Regional Weather Roundup
Issued by NWS Raleigh/Durham, NC

Home | Current Version | Previous Version | Text Only | Print | Product List | Glossary On
Versions: 1 2 3 4 5 6 7 8 9 10 11 12 13 14 15 16 17 18 19 20 21 22 23 24 25 26 27 28 29 30 31 32 33 34 35 36 37 38 39 40 41 42 43 44 45 46 47 48 49 50
000
ASUS42 KRAH 272110
RWRRAH
NORTH CAROLINA WEATHER ROUNDUP
NATIONAL WEATHER SERVICE RALEIGH NC
500 PM EDT WED AUG 27 2014

NOTE: "FAIR" INDICATES FEW OR NO CLOUDS BELOW 12,000 FEET WITH NO
SIGNIFICANT WEATHER AND/OR OBSTRUCTIONS TO VISIBILITY.

NCZ001-053-055-056-065-067-272200-
WESTERN NORTH CAROLINA

CITY           SKY/WX    TMP DP  RH WIND       PRES   REMARKS
ASHEVILLE      MOSUNNY   85  57  38 W7        30.10F
JEFFERSON      SUNNY     77  51  39 NE5       30.17S
MORGANTON      SUNNY     87  46  24 NE6       30.10S
HICKORY        SUNNY     85  52  32 CALM      30.06S
RUTHERFORDTON  SUNNY     87  51  28 NE5       30.06S
MOUNT AIRY     MOSUNNY   86  65  50 CALM      30.07S
BOONE          SUNNY     79  47  32 NE6       30.16F
$$

NCZ021-022-025-041-071-084-088-272200-
CENTRAL NORTH CAROLINA

CITY           SKY/WX    TMP DP  RH WIND       PRES   REMARKS
CHARLOTTE      MOSUNNY   86  51  29 N9        30.03F
GREENSBORO     MOSUNNY   87  59  38 NW6       30.02F
WINSTON-SALEM  SUNNY     86  58  38 N6        30.04S
RALEIGH-DURHAM MOSUNNY   86  58  38 VRB6      29.99F
FORT BRAGG     SUNNY     87  62  42 VRB2      29.97F
FAYETTEVILLE   SUNNY     88  58  36 NE8       29.96F
BURLINGTON     SUNNY     87  54  32 NW9       30.00F
LAURINBURG     SUNNY     89  54  30 N10       29.97F
$$

NCZ011-015-027-028-043-044-047-080-103-272200-
NORTHEASTERN NORTH CAROLINA

CITY           SKY/WX    TMP DP  RH WIND       PRES   REMARKS
ROCKY MT-WILSO SUNNY     85  60  42 VRB5      29.97F
GREENVILLE     SUNNY     84  68  58 N8        29.98S
WASHINGTON     SUNNY     84  67  57 N9        29.95S
ELIZABETH CITY SUNNY     82  67  60 NE12      29.94F
MANTEO         CLOUDY    78  71  79 N14       29.95R
CAPE HATTERAS  PTSUNNY   79  73  82 N9G24     29.91S
$$

NCZ078-087-090-091-093-098-101-272200-
SOUTHEASTERN NORTH CAROLINA

CITY           SKY/WX    TMP DP  RH WIND       PRES   REMARKS
LUMBERTON      SUNNY     88  55  32 NE6       29.96S
GOLDSBORO      SUNNY     84  63  49 N8        29.95S
KINSTON        MOSUNNY   86  66  51 N8        29.96F
KENANSVILLE    SUNNY     84  62  46 NW7       29.97S
NEW BERN       MOSUNNY   88  69  53 N12       29.94S
CHERRY POINT   MOSUNNY   85  68  56 N12       29.93F
BEAUFORT       SUNNY     86  70  58 NE10      29.92S
JACKSONVILLE   MOSUNNY   87  68  52 N13       29.92F
WILMINGTON     MOSUNNY   85  68  56 NW12      29.93F
$$



USA.gov is the U.S. government's official web portal to all federal, state and local government web resources and services.